EW0259 Weather Reports


time (UTC)temp
F
wind
direction
speed
knots
gust
knots
rain 1hr
in
rain 24hr
in
rain mn
in
humidity
%
barometer
mb
20260906220730 72 276 2.6 7.8 0.00 0.00 0.00 50 1016.7
20260906220238 72 323 2.6 8.7 0.00 0.00 0.00 50 1016.7
20260906215725 72 11 1.7 3.5 0.00 0.00 0.00 51 1016.6
20260906215233 72 128 0.9 6.1 0.00 0.00 0.00 50 1016.6
20260906214734 72 248 2.6 6.1 0.00 0.00 0.00 51 1016.6
20260906214256 71 276 3.5 6.1 0.00 0.00 0.00 50 1016.6
20260906213730 71 215 1.7 7.0 0.00 0.00 0.00 52 1016.6
20260906213257 71 91 1.7 7.0 0.00 0.00 0.00 51 1016.6
20260906213225 71 91 1.7 7.0 0.00 0.00 0.00 51 1016.6
20260906212732 72 272 2.6 7.0 0.00 0.00 0.00 51 1016.7
20260906212224 71 313 0.9 4.3 0.00 0.00 0.00 52 1016.6
20260906211730 71 20 1.7 4.3 0.00 0.00 0.00 52 1016.6
20260906211237 71 323 0.9 3.5 0.00 0.00 0.00 52 1016.5
20260906210724 71 127 1.7 3.5 0.00 0.00 0.00 52 1016.6
20260906210231 71 166 1.7 4.3 0.00 0.00 0.00 52 1016.7
20260906205738 71 244 2.6 5.2 0.00 0.00 0.00 52 1016.7
20260906205307 70 331 0.9 7.0 0.00 0.00 0.00 53 1016.6
20260906204721 70 262 4.3 7.0 0.00 0.00 0.00 53 1016.5
20260906204228 70 341 1.7 7.0 0.00 0.00 0.00 55 1016.7
20260906203735 71 255 2.6 7.0 0.00 0.00 0.00 51 1016.7
20260906203303 71 26 0.9 4.3 0.00 0.00 0.00 54 1016.6
20260906202722 70 46 1.7 7.8 0.00 0.00 0.00 53 1016.6
20260906202229 70 9 2.6 7.8 0.00 0.00 0.00 54 1016.7
20260906201756 70 302 1.7 3.5 0.00 0.00 0.00 54 1016.8
20260906201231 70 331 0.9 3.5 0.00 0.00 0.00 54 1016.8
20260906200758 69 286 0.9 7.0 0.00 0.00 0.00 56 1016.8
20260906200727 69 286 0.9 7.0 0.00 0.00 0.00 56 1016.8
20260906200233 69 228 2.6 7.0 0.00 0.00 0.00 54 1016.8
20260906195720 69 324 1.7 7.0 0.00 0.00 0.00 56 1016.8
20260906195228 69 319 2.6 7.0 0.00 0.00 0.00 56 1016.9
20260906194734 69 318 2.6 8.7 0.00 0.00 0.00 56 1016.8
20260906194221 70 44 1.7 3.5 0.00 0.00 0.00 56 1016.8
20260906193728 70 23 1.7 5.2 0.00 0.00 0.00 57 1016.9
20260906193235 69 36 2.6 5.2 0.00 0.00 0.00 57 1016.9
20260906192802 69 298 2.6 4.3 0.00 0.00 0.00 56 1017.1
20260906192258 69 254 1.7 4.3 0.00 0.00 0.00 57 1017.2
20260906191732 69 47 1.7 7.8 0.00 0.00 0.00 58 1017.1
20260906191259 69 41 1.7 7.8 0.00 0.00 0.00 57 1017.2
20260906191228 69 41 1.7 7.8 0.00 0.00 0.00 57 1017.2
20260906190754 68 297 1.7 7.0 0.00 0.00 0.00 59 1017.2
20260906190722 68 297 1.7 7.0 0.00 0.00 0.00 59 1017.2
20260906190309 68 9 0.9 7.0 0.00 0.00 0.00 59 1017.3
20260906185728 68 27 0.9 4.3 0.00 0.00 0.00 60 1017.5
20260906185256 67 329 0.9 3.5 0.00 0.00 0.00 63 1017.3
20260906184730 67 360 1.7 4.3 0.00 0.00 0.00 62 1017.5
20260906184237 66 27 1.7 3.5 0.00 0.00 0.00 63 1017.5
20260906183724 66 351 0.9 6.1 0.00 0.00 0.00 66 1017.5
20260906183231 65 268 2.6 6.1 0.00 0.00 0.00 65 1017.5
20260906182738 65 296 2.6 5.2 0.00 0.00 0.00 65 1017.5
20260906182306 65 28 0.9 6.1 0.00 0.00 0.00 67 1017.4
20260906181721 64 355 2.6 5.2 0.00 0.00 0.00 67 1017.3
20260906181228 64 311 2.6 7.0 0.00 0.00 0.00 67 1017.4
20260906180735 64 329 1.7 7.8 0.00 0.00 0.00 68 1017.3
20260906180222 65 297 3.5 7.8 0.00 0.00 0.00 67 1017.2
20260906175733 64 292 0.9 7.0 0.00 0.00 0.00 68 1017.2
20260906175221 64 13 0.9 7.0 0.00 0.00 0.00 69 1017.2
20260906174807 64 360 2.6 7.8 0.00 0.00 0.00 69 1017.2
20260906174302 64 327 3.5 7.8 0.00 0.00 0.00 70 1017.2
20260906174230 64 327 3.5 7.8 0.00 0.00 0.00 70 1017.2
20260906173737 63 328 2.6 7.8 0.00 0.00 0.00 69 1017.2
20260906173304 63 310 2.6 5.2 0.00 0.00 0.00 70 1017.4
20260906173232 63 310 2.6 5.2 0.00 0.00 0.00 70 1017.4
20260906172739 63 350 1.7 3.5 0.00 0.00 0.00 71 1017.5
20260906172228 62 226 1.7 6.1 0.00 0.00 0.00 72 1017.5
20260906171733 62 298 1.7 6.1 0.00 0.00 0.00 71 1017.5
20260906171220 61 314 0.9 3.5 0.00 0.00 0.00 73 1017.5
20260906170727 61 311 1.7 3.5 0.00 0.00 0.00 73 1017.6
20260906170234 61 234 0.9 3.5 0.00 0.00 0.00 74 1017.7
20260906165741 61 259 0.9 4.3 0.00 0.00 0.00 74 1017.8
20260906165228 61 261 2.6 4.3 0.00 0.00 0.00 74 1017.7
20260906164756 61 235 1.7 4.3 0.00 0.00 0.00 73 1017.7
20260906164724 61 235 1.7 4.3 0.00 0.00 0.00 73 1017.7
20260906164306 62 248 0.9 2.6 0.00 0.00 0.00 72 1017.8
20260906163725 62 54 0.9 2.6 0.00 0.00 0.00 71 1017.7
20260906163232 61 44 0.0 2.6 0.00 0.00 0.00 73 1017.6
20260906162739 61 66 1.7 2.6 0.00 0.00 0.00 73 1017.7
20260906162227 61 106 0.9 2.6 0.00 0.00 0.00 74 1017.9
20260906161733 60 117 0.9 1.7 0.00 0.00 0.00 75 1017.7
20260906161300 59 57 0.0 1.7 0.00 0.00 0.00 76 1017.7
20260906160735 59 124 0.9 1.7 0.00 0.00 0.00 76 1017.6
20260906160257 58 82 0.0 1.7 0.00 0.00 0.00 78 1017.6
20260906155732 58 92 1.7 1.7 0.00 0.00 0.00 79 1017.6
20260906155240 57 88 0.0 1.7 0.00 0.00 0.00 80 1017.5
20260906154807 57 81 0.0 0.0 0.00 0.00 0.00 82 1017.4
20260906154222 56 81 0.0 0.0 0.00 0.00 0.00 83 1017.4
20260906153728 56 65 0.0 0.0 0.00 0.00 0.00 85 1017.3
20260906153221 55 42 0.0 0.0 0.00 0.00 0.00 86 1017.3
20260906152727 54 42 0.0 0.0 0.00 0.00 0.00 88 1017.1
20260906152235 53 42 0.0 0.0 0.00 0.00 0.00 91 1017.2
20260906151721 52 42 0.0 0.0 0.00 0.00 0.00 91 1017.1
20260906151308 52 61 0.0 0.0 0.00 0.00 0.00 91 1017.1
20260906151236 52 61 0.0 0.0 0.00 0.00 0.00 91 1017.1
20260906150803 51 61 0.0 0.0 0.00 0.00 0.00 91 1017.2
20260906150731 51 61 0.0 0.0 0.00 0.00 0.00 91 1017.2
20260906150258 51 61 0.0 0.0 0.00 0.00 0.00 92 1017.1
20260906150226 51 61 0.0 0.0 0.00 0.00 0.00 92 1017.1
20260906145733 51 61 0.0 0.0 0.00 0.00 0.00 93 1017.2
20260906145301 51 61 0.0 0.0 0.00 0.00 0.00 95 1017.1
20260906145229 51 61 0.0 0.0 0.00 0.00 0.00 95 1017.1
20260906144755 50 61 0.0 0.0 0.00 0.00 0.00 95 1017.0
20260906144723 50 61 0.0 0.0 0.00 0.00 0.00 95 1017.0
20260906144230 49 61 0.0 0.0 0.00 0.00 0.00 95 1016.9
20260906143737 48 61 0.0 0.0 0.00 0.00 0.00 95 1017.0
20260906143224 48 61 0.0 0.0 0.00 0.00 0.00 95 1017.1
20260906142811 47 61 0.0 0.0 0.00 0.00 0.00 95 1017.1
20260906142739 47 61 0.0 0.0 0.00 0.00 0.00 95 1017.1
20260906142227 47 61 0.0 0.0 0.00 0.00 0.00 94 1017.0
20260906141733 47 61 0.0 0.0 0.00 0.00 0.00 94 1017.0
20260906141301 47 61 0.0 0.0 0.00 0.00 0.00 94 1017.0
20260906140720 47 61 0.0 0.0 0.00 0.00 0.00 94 1017.0
20260906140227 47 61 0.0 0.0 0.00 0.00 0.00 94 1017.1
20260906135754 47 61 0.0 0.0 0.00 0.00 0.00 94 1017.0
20260906135722 47 61 0.0 0.0 0.00 0.00 0.00 94 1017.0
20260906135230 47 61 0.0 0.0 0.00 0.00 0.00 94 1017.0
20260906134736 47 61 0.0 0.0 0.00 0.00 0.00 94 1017.0
20260906134223 47 61 0.0 0.0 0.00 0.00 0.00 93 1017.0
20260906133730 47 61 0.0 0.0 0.00 0.00 0.00 93 1016.9
20260906133237 47 61 0.0 0.0 0.00 0.00 0.00 93 1017.0
20260906132724 47 61 0.0 0.0 0.00 0.00 0.00 93 1017.0
20260906132232 47 64 0.0 0.0 0.00 0.00 0.00 93 1017.1
20260906131738 47 64 0.0 0.0 0.00 0.00 0.00 93 1017.0
20260906131229 48 64 0.0 0.0 0.00 0.00 0.00 94 1017.0
20260906130736 48 64 0.0 0.0 0.00 0.00 0.00 94 1017.1
20260906130303 48 64 0.0 0.0 0.00 0.00 0.00 94 1017.1
20260906125759 48 58 0.0 0.0 0.00 0.00 0.00 94 1017.2
20260906125235 48 58 0.0 0.0 0.00 0.00 0.00 94 1017.1
20260906124721 48 58 0.0 0.0 0.00 0.00 0.00 94 1017.1
20260906124228 48 59 0.0 0.0 0.00 0.00 0.00 94 1017.1
20260906123735 48 59 0.0 0.0 0.00 0.00 0.00 94 1017.2
20260906123301 48 68 0.0 0.0 0.00 0.00 0.00 94 1017.2
20260906123229 48 68 0.0 0.0 0.00 0.00 0.00 94 1017.2
20260906122737 48 68 0.0 0.0 0.00 0.00 0.00 94 1017.2
20260906122306 48 68 0.0 0.0 0.00 0.00 0.00 94 1017.1
20260906122233 48 68 0.0 0.0 0.00 0.00 0.00 94 1017.1
20260906121738 48 68 0.0 0.0 0.00 0.00 0.00 94 1017.1
20260906121305 48 79 0.0 0.0 0.00 0.00 0.00 94 1017.1
20260906121233 48 79 0.0 0.0 0.00 0.00 0.00 94 1017.1
20260906120801 48 78 0.0 0.0 0.00 0.00 0.00 94 1017.1
20260906120235 48 74 0.0 0.0 0.00 0.00 0.00 93 1017.1
20260906115722 48 74 0.0 0.0 0.00 0.00 0.00 93 1017.0
20260906115230 48 74 0.0 0.0 0.00 0.00 0.00 93 1017.0
20260906114236 48 74 0.0 0.0 0.00 0.00 0.00 93 1017.0
20260906113723 48 74 0.0 0.0 0.00 0.00 0.00 93 1017.0
20260906113230 49 74 0.0 0.0 0.00 0.00 0.00 93 1017.3
20260906112758 49 74 0.0 0.0 0.00 0.00 0.00 93 1017.3
20260906112234 49 74 0.0 0.0 0.00 0.00 0.00 94 1017.3
20260906111720 49 74 0.0 0.0 0.00 0.00 0.00 94 1017.2
20260906111227 49 74 0.0 0.0 0.00 0.00 0.00 94 1017.2
20260906110734 49 52 0.0 0.0 0.00 0.00 0.00 94 1017.3
20260906110301 49 52 0.0 0.0 0.00 0.00 0.00 93 1017.3
20260906105739 49 52 0.0 0.0 0.00 0.00 0.00 93 1017.2
20260906105226 49 52 0.0 0.0 0.00 0.00 0.00 93 1017.2
20260906104732 49 52 0.0 0.0 0.00 0.00 0.00 93 1017.1
20260906104300 49 52 0.0 0.0 0.00 0.00 0.00 93 1017.1
20260906103739 49 53 0.0 0.0 0.00 0.00 0.00 93 1017.2
20260906103307 49 53 0.0 0.0 0.00 0.00 0.00 93 1017.2
20260906102722 49 53 0.0 0.0 0.00 0.00 0.00 93 1017.2
20260906102310 49 57 0.0 0.0 0.00 0.00 0.00 93 1017.3
20260906101724 49 57 0.0 0.0 0.00 0.00 0.00 93 1017.2
20260906101231 49 57 0.0 0.0 0.00 0.00 0.00 93 1017.2
20260906100738 49 33 0.0 0.0 0.00 0.00 0.00 93 1017.2
20260906100225 49 33 0.0 0.0 0.00 0.00 0.00 93 1017.3
20260906095732 49 33 0.0 0.0 0.00 0.00 0.00 93 1017.3
20260906095240 49 90 0.0 0.0 0.00 0.00 0.00 93 1017.3
20260906094726 49 90 0.0 0.0 0.00 0.00 0.00 93 1017.3
20260906094254 50 90 0.0 0.0 0.00 0.00 0.00 93 1017.2
20260906093729 50 91 0.0 0.0 0.00 0.00 0.00 93 1017.1
20260906093239 50 90 0.0 0.0 0.00 0.00 0.00 92 1017.2
20260906092726 50 90 0.0 0.0 0.00 0.00 0.00 92 1017.2
20260906092235 50 90 0.0 0.0 0.00 0.00 0.00 92 1017.1
20260906091740 50 90 0.0 0.0 0.00 0.00 0.00 93 1017.1
20260906091222 50 90 0.0 0.0 0.00 0.00 0.00 93 1017.1
20260906090729 50 90 0.0 0.0 0.00 0.00 0.00 93 1017.1
20260906090236 50 90 0.0 0.0 0.00 0.00 0.00 93 1017.2
20260906085722 50 90 0.0 0.0 0.00 0.00 0.00 93 1017.1
20260906085230 50 90 0.0 0.0 0.00 0.00 0.00 93 1017.2
20260906084736 50 90 0.0 0.0 0.00 0.00 0.00 92 1017.2
20260906084226 50 90 0.0 0.0 0.00 0.00 0.00 92 1017.1
20260906083733 50 90 0.0 0.0 0.00 0.00 0.00 93 1017.2
20260906083300 50 90 0.0 0.0 0.00 0.00 0.00 92 1017.3
20260906082735 51 90 0.0 0.0 0.00 0.00 0.00 92 1017.3
20260906082223 51 90 0.0 0.0 0.00 0.00 0.00 92 1017.4
20260906081729 51 90 0.0 0.0 0.00 0.00 0.00 92 1017.3
20260906081236 51 90 0.0 0.0 0.00 0.00 0.00 92 1017.3
20260906080723 51 90 0.0 0.0 0.00 0.00 0.00 92 1017.3
20260906080310 51 90 0.0 0.0 0.00 0.00 0.00 92 1017.2
20260906075724 51 90 0.0 0.0 0.00 0.00 0.00 92 1017.2
20260906075312 51 90 0.0 0.0 0.00 0.00 0.00 92 1017.2
20260906074726 51 90 0.0 0.0 0.00 0.00 0.00 92 1017.3
20260906074233 51 90 0.0 0.0 0.00 0.00 0.00 92 1017.4
20260906073745 51 90 0.0 0.0 0.00 0.00 0.00 92 1017.3
20260906073307 51 90 0.0 0.0 0.00 0.00 0.00 92 1017.3
20260906072722 52 90 0.0 0.0 0.00 0.00 0.00 91 1017.3
20260906072310 52 90 0.0 0.0 0.00 0.00 0.00 91 1017.5
20260906072238 52 90 0.0 0.0 0.00 0.00 0.00 91 1017.5
20260906071724 52 90 0.0 0.0 0.00 0.00 0.00 91 1017.6
20260906071311 52 90 0.0 0.0 0.00 0.00 0.00 91 1017.5
20260906071239 52 90 0.0 0.0 0.00 0.00 0.00 91 1017.5
20260906070806 52 90 0.0 0.0 0.00 0.00 0.00 91 1017.5
20260906070734 52 90 0.0 0.0 0.00 0.00 0.00 91 1017.5
20260906070221 52 90 0.0 0.0 0.00 0.00 0.00 91 1017.6
20260906065728 52 90 0.0 0.0 0.00 0.00 0.00 91 1017.7
20260906065236 52 90 0.0 0.0 0.00 0.00 0.00 91 1017.7
20260906064722 53 90 0.0 0.0 0.00 0.00 0.00 91 1017.7
20260906064309 53 90 0.0 0.0 0.00 0.00 0.00 91 1017.5
20260906064237 53 90 0.0 0.0 0.00 0.00 0.00 91 1017.5
20260906063724 53 90 0.0 0.0 0.00 0.00 0.00 91 1017.7
20260906063231 53 90 0.0 0.0 0.00 0.00 0.00 90 1017.6
20260906062738 53 90 0.0 0.0 0.00 0.00 0.00 89 1017.6
20260906062230 53 90 0.0 0.0 0.00 0.00 0.00 89 1017.7
20260906061757 53 90 0.0 0.0 0.00 0.00 0.00 89 1017.6
20260906061232 53 90 0.0 0.0 0.00 0.00 0.00 89 1017.6
20260906060738 53 90 0.0 0.0 0.00 0.00 0.00 89 1017.7
20260906060225 53 59 0.0 0.0 0.00 0.00 0.00 89 1017.7
20260906055732 53 59 0.0 0.0 0.00 0.00 0.00 88 1017.6
20260906055240 54 59 0.0 0.0 0.00 0.00 0.00 88 1017.5
20260906054726 54 59 0.0 0.0 0.00 0.00 0.00 88 1017.7
20260906054233 54 59 0.0 0.0 0.00 0.00 0.00 87 1017.7
20260906053720 54 284 0.0 0.0 0.00 0.00 0.00 87 1017.7
20260906053227 55 284 0.0 0.0 0.00 0.00 0.00 87 1017.7
20260906052754 55 284 0.0 0.0 0.00 0.00 0.00 87 1017.8
20260906052234 55 284 0.0 0.0 0.00 0.00 0.00 88 1017.7
20260906051720 55 283 0.0 0.0 0.00 0.00 0.00 87 1017.9
20260906051307 55 284 0.0 0.0 0.00 0.00 0.00 87 1017.9
20260906050722 55 284 0.0 0.0 0.00 0.00 0.00 86 1018.0
20260906050229 55 284 0.0 0.0 0.00 0.00 0.00 86 1017.9
20260906045737 55 284 0.0 0.0 0.00 0.00 0.00 85 1018.0
20260906045224 56 284 0.0 0.0 0.00 0.00 0.00 85 1018.0
20260906044730 56 284 0.0 0.0 0.00 0.00 0.00 84 1018.0
20260906044237 56 284 0.0 0.0 0.00 0.00 0.00 84 1018.1
20260906043724 56 284 0.0 0.0 0.00 0.00 0.00 84 1018.0
20260906043232 56 283 0.0 0.0 0.00 0.00 0.00 83 1018.0
20260906042722 57 283 0.0 0.0 0.00 0.00 0.00 83 1018.1
20260906042230 57 284 0.0 0.0 0.00 0.00 0.00 82 1018.1
20260906041737 57 284 0.0 0.0 0.00 0.00 0.00 82 1018.1
20260906041223 57 284 0.0 0.0 0.00 0.00 0.00 81 1018.2
20260906040810 58 284 0.0 0.0 0.00 0.00 0.00 81 1018.2
20260906040738 58 284 0.0 0.0 0.00 0.00 0.00 81 1018.2
20260906040305 58 284 0.0 0.0 0.00 0.00 0.00 81 1018.2
20260906040234 58 284 0.0 0.0 0.00 0.00 0.00 81 1018.2
20260906035720 58 284 0.0 0.0 0.00 0.00 0.00 80 1018.2
20260906035228 58 284 0.0 0.0 0.00 0.00 0.00 80 1018.3
20260906034733 58 284 0.0 0.0 0.00 0.00 0.00 79 1018.2
20260906034220 59 284 0.0 0.0 0.00 0.00 0.00 78 1018.2
20260906033727 59 284 0.0 0.0 0.00 0.00 0.00 77 1018.1
20260906033254 59 284 0.0 0.0 0.00 0.00 0.00 77 1018.0
20260906033222 59 284 0.0 0.0 0.00 0.00 0.00 77 1018.0
20260906032729 60 284 0.0 0.0 0.00 0.00 0.00 76 1018.0
20260906032240 60 284 0.0 0.0 0.00 0.00 0.00 76 1018.0
20260906031726 60 284 0.0 0.0 0.00 0.00 0.00 76 1017.9
20260906031233 61 284 0.0 0.0 0.00 0.00 0.00 75 1017.7
20260906030800 61 284 0.0 0.0 0.00 0.00 0.00 74 1017.7
20260906030728 61 284 0.0 0.0 0.00 0.00 0.00 74 1017.7
20260906030235 61 284 0.0 0.0 0.00 0.00 0.00 73 1017.6
20260906025722 62 284 0.0 0.0 0.00 0.00 0.00 72 1017.6
20260906025230 62 283 0.0 0.0 0.00 0.00 0.00 70 1017.7
20260906024303 63 284 0.0 0.0 0.00 0.00 0.00 70 1017.7
20260906023740 63 284 0.0 0.0 0.00 0.00 0.00 69 1017.8
20260906023221 63 284 0.0 0.0 0.00 0.00 0.00 67 1017.8
20260906022809 64 284 0.0 0.0 0.00 0.00 0.00 66 1017.7
20260906022225 64 284 0.0 0.0 0.00 0.00 0.00 66 1017.6
20260906021735 64 284 0.0 0.0 0.00 0.00 0.00 65 1017.5
20260906021302 65 284 0.0 0.0 0.00 0.00 0.00 65 1017.6
20260906021230 65 284 0.0 0.0 0.00 0.00 0.00 65 1017.6
20260906020732 65 284 0.0 0.0 0.00 0.00 0.00 62 1017.7
20260906020259 65 277 0.0 0.0 0.00 0.00 0.00 63 1017.7
20260906020227 65 277 0.0 0.0 0.00 0.00 0.00 63 1017.7
20260906015734 66 277 0.0 0.0 0.00 0.00 0.00 61 1017.6
20260906015240 66 277 0.0 0.0 0.00 0.00 0.00 60 1017.7
20260906014726 67 277 0.0 1.7 0.00 0.00 0.00 59 1017.7
20260906014233 67 277 0.9 1.7 0.00 0.00 0.00 58 1017.8
20260906013800 68 277 0.0 0.0 0.00 0.00 0.00 56 1017.8
20260906013728 68 277 0.0 0.0 0.00 0.00 0.00 56 1017.8
20260906013235 68 277 0.0 0.9 0.00 0.00 0.00 57 1017.6
20260906012722 68 277 0.0 0.9 0.00 0.00 0.00 57 1017.7
20260906012231 69 277 0.9 1.7 0.00 0.00 0.00 55 1017.7
20260906011757 69 287 0.0 1.7 0.00 0.00 0.00 55 1017.6
20260906011725 69 287 0.0 1.7 0.00 0.00 0.00 55 1017.6
20260906011252 70 234 0.0 1.7 0.00 0.00 0.00 54 1017.5
20260906010728 71 232 0.0 1.7 0.00 0.00 0.00 51 1017.5
20260906010235 71 202 0.9 1.7 0.00 0.00 0.00 51 1017.5
20260906005726 70 239 0.0 1.7 0.00 0.00 0.00 53 1017.5
20260906005254 71 242 0.9 1.7 0.00 0.00 0.00 52 1017.5
20260906004728 70 333 0.9 2.6 0.00 0.00 0.00 53 1017.5
20260906004235 70 300 0.0 2.6 0.00 0.00 0.00 53 1017.5
20260906003802 69 26 0.9 1.7 0.00 0.00 0.00 54 1017.6
20260906003730 69 26 0.9 1.7 0.00 0.00 0.00 54 1017.6
20260906003237 68 317 0.9 1.7 0.00 0.00 0.00 56 1017.5
20260906002724 68 217 0.0 1.7 0.00 0.00 0.00 57 1017.5
20260906002232 68 264 0.0 1.7 0.00 0.00 0.00 56 1017.5
20260906001738 68 263 0.0 2.6 0.00 0.00 0.00 56 1017.4
20260906001225 68 355 0.9 2.6 0.00 0.00 0.00 57 1017.5
20260906000732 68 172 0.9 2.6 0.00 0.00 0.00 56 1017.4
20260906000256 68 99 0.9 2.6 0.00 0.00 0.00 56 1017.6
20260906000222 68 99 0.9 2.6 0.00 0.00 0.00 56 1017.6
20260905235729 68 106 0.0 1.7 0.00 0.00 0.00 57 1017.6
20260905235221 69 106 0.9 1.7 0.00 0.00 0.00 55 1017.6
20260905234807 68 348 0.0 1.7 0.00 0.00 0.00 57 1017.7
20260905234222 68 81 0.0 1.7 0.00 0.00 0.00 57 1017.7
20260905233809 68 55 0.9 1.7 0.00 0.00 0.00 57 1017.7
20260905233305 68 149 0.9 1.7 0.00 0.00 0.00 55 1017.8
20260905232720 68 164 0.0 1.7 0.00 0.00 0.00 55 1017.7
20260905232228 68 196 0.9 2.6 0.00 0.00 0.00 55 1017.7
20260905231754 68 202 0.9 2.6 0.00 0.01 0.00 55 1017.6
20260905231230 69 173 0.9 2.6 0.00 0.01 0.00 55 1017.7
20260905230737 68 310 0.9 2.6 0.00 0.01 0.00 53 1017.8
20260905230224 68 93 0.9 4.3 0.00 0.01 0.00 53 1018.0
20260905225731 68 93 1.7 4.3 0.00 0.01 0.00 54 1017.9
20260905225240 68 330 1.7 4.3 0.00 0.01 0.00 54 1017.9
20260905224725 67 70 0.9 2.6 0.00 0.01 0.00 55 1018.0
20260905224236 67 131 0.9 2.6 0.00 0.01 0.00 57 1018.1
20260905223723 67 140 0.0 2.6 0.00 0.01 0.00 58 1018.1
20260905223311 66 95 0.9 3.5 0.00 0.01 0.00 59 1018.0
20260905223239 66 95 0.9 3.5 0.00 0.01 0.00 59 1018.0
20260905222726 66 84 0.9 3.5 0.00 0.01 0.00 60 1018.1
20260905222234 65 38 0.9 3.5 0.00 0.01 0.00 60 1018.2
20260905221800 65 80 1.7 3.5 0.00 0.01 0.00 62 1018.2
20260905221235 65 53 2.6 3.5 0.00 0.01 0.00 61 1018.3